Regional Weather Roundup
Issued by NWS Portland, ME

Current Version | Previous Version | Text Only | Print | Product List | Glossary Off
Versions: 1 2 3 4 5 6 7 8 9 10 11 12 13 14 15 16 17 18 19 20 21 22 23 24 25 26 27 28 29 30 31 32 33 34 35 36 37 38 39 40 41 42 43 44 45 46 47 48 49 50
754 ASUS41 KGYX 251010 RWRGYX WEATHER ROUNDUP FOR MAINE AND NEW HAMPSHIRE NATIONAL WEATHER SERVICE GRAY ME 600 AM EDT TUE APR 25 2017 MEZ002-005-006-010-012-015-018-020-021-024-026-027-029-251100- MAINE CITY SKY/WX TMP DP RH WIND PRES REMARKS PORTLAND CLOUDY 43 42 97 NE7 30.31R FOG SANFORD CLOUDY 43 43 100 NE10 30.29R FOG BAR HARBOR CLOUDY 36 35 96 N6 30.38R WISCASSET CLOUDY 41 41 100 VRB3 30.34R FOG ROCKLAND CLOUDY 40 39 97 NE8 30.34R FRYEBURG CLOUDY 31 31 100 CALM 30.33R FOG LEWISTONAUBURN CLOUDY 36 33 89 CALM 30.33R AUGUSTA PTCLDY 39 20 46 N8 30.34R WATERVILLE PTCLDY 39 19 44 NE10 30.32R BANGOR CLOUDY 34 24 67 N9 30.38R GREENVILLE N/A 33 17 51 E9 30.32R MILLINOCKET CLOUDY 31 16 54 NE6 30.43R HOULTON CLOUDY 25 22 88 CALM 30.43R PRESQUE ISLE CLOUDY 23 20 88 CALM 30.45R FRENCHVILLE CLOUDY 22 11 62 N3 30.41R CARIBOU CLOUDY 26 16 65 N6 30.42R $$ NHZ002-005-008-009-011-012-014-251100- NEW HAMPSHIRE CITY SKY/WX TMP DP RH WIND PRES REMARKS PORTSMOUTH LGT RAIN 45 44 96 N7 30.26R ROCHESTER CLOUDY 43 41 93 N3 30.28R FOG NASHUA LGT RAIN 47 44 90 NE3 30.26R MANCHESTER CLOUDY 46 42 86 NE7 30.25R CONCORD CLOUDY 45 41 86 NE5 30.27R LACONIA CLOUDY 45 38 76 E9 30.28R PLYMOUTH FAIR 36 35 98 CALM 30.27R BERLIN CLOUDY 27 24 89 CALM 30.30R WHITEFIELD CLOUDY 46 32 58 E12G20 30.24R JAFFREY LGT RAIN 45 43 93 VRB3 30.22S KEENE LGT RAIN 49 41 74 NE7 30.22R LEBANON PTCLDY 42 38 85 NE3 30.23R MT WASHINGTON PTCLDY 34 32 93 S17 N/A $$ VTZ005-007-008-251100- VERMONT CITY SKY/WX TMP DP RH WIND PRES REMARKS ST JOHNSBURY N/A 33 31 92 MISG 30.25R MONTPELIER PTCLDY 33 31 92 CALM 30.27R BURLINGTON PTCLDY 36 31 82 NE3 30.22S $$ MAZ007-012-024-CTZ003-RIZ002-NYZ038-NYZ072-251100- SOUTHERN NEW ENGLAND AND NY CITY SKY/WX TMP DP RH WIND PRES REMARKS BOSTON CLOUDY 47 45 93 NE13 30.24R WORCESTER CLOUDY 46 40 79 NE9G17 30.20R NANTUCKET CLOUDY 50 47 89 E20G28 30.16S PROVIDENCE LGT RAIN 50 49 96 NE12 30.19S HARTFORD LGT RAIN 52 41 66 NE6 30.18R ALBANY LGT RAIN 46 29 51 N3 30.17R NEW YORK CITY LGT RAIN 50 47 89 NE20 30.07F $$ ANZ081-ANZ082-ANZ150-NHZ014-MEZ023>029-251100- COASTAL MARINE OBSERVATIONS STATION/POSITION TIME TEMP WIND PRES WAVE AIR SEA DIR/SP/G HT/PER (UTC) (F) (DEG/KT/KT) (MB) (FT/S) MOUNT DESERT ROC 1000 38 1027.5R MATINICUS ROCK 0900 38 80/ 12/ 13 1025.9R ISLE OF SHOALS 0900 46 30/ 10/ 12 1024.4R JEFFREYS LEDGE 0906 44 N/A 2/10 CASHES LEDGE BUO 0950 41 43 1026.0R 2/14 GEORGES BANK BUO 0850 44 41 1023.3 4/12 $$ .............KEY.............. WCI - WIND CHILL TC - TEMPERATURE IN CELSIUS VSB - VISIBILITY IN MILES HX - HEAT INDEX FAIR- INDICATES FEW OR NO CLOUDS BELOW 12,000 FT, WITH NO SIGNIFICANT WEATHER AND/OR OBSTRUCTIONS TO VISIBILITY.

USA.gov is the U.S. government's official web portal to all federal, state and local government web resources and services.